datetime,release volume
1964-04-23,2300.82645
1964-04-24,2757.02479
1964-04-25,3114.04959
1964-04-26,3292.56198
1964-04-27,3312.39669
1964-04-28,3411.57025
1964-04-29,3371.90083
1964-04-30,3252.89256
1964-05-01,3133.8843
1964-05-02,2975.20661
1964-05-03,2915.70248
1964-05-04,2876.03306
1964-05-05,2876.03306
1964-05-06,2856.19835
1964-05-07,2856.19835
1964-05-08,2836.36364
1964-05-09,2796.69421
1964-05-10,2796.69421
1964-05-11,2856.19835
1964-05-12,2935.53719
1964-05-13,2995.04132
1964-05-14,3014.87603
1964-05-15,3054.54545
1964-05-16,3054.54545
1964-05-17,3054.54545
1964-05-18,3054.54545
1964-05-19,3054.54545
1964-05-20,3054.54545
1964-05-21,3054.54545
1964-05-22,3054.54545
1964-05-23,3054.54545
1964-05-24,3014.87603
1964-05-25,3054.54545
1964-05-26,3054.54545
1964-05-27,2657.85124
1964-05-28,5018.18182
1964-05-29,6466.1157
1964-05-30,6069.42149
1964-05-31,6188.42975
1964-06-01,6684.29752
1964-06-02,6783.47107
1964-06-03,7338.84298
1964-06-04,7576.8595
1964-06-05,7299.17355
1964-06-06,7656.19835
1964-06-07,7477.68595
1964-06-08,8211.57025
1964-06-09,8409.91736
1964-06-10,8846.28099
1964-06-11,9163.63636
1964-06-12,9123.96694
1964-06-13,9084.29752
1964-06-14,9084.29752
1964-06-15,9084.29752
1964-06-16,9084.29752
1964-06-17,8707.43802
1964-06-18,9044.6281
1964-06-19,10552.0661
1964-06-20,10631.405
1964-06-21,10889.2562
1964-06-22,11246.281
1964-06-23,11186.7769
1964-06-24,11147.1074
1964-06-25,11147.1074
1964-06-26,10928.9256
1964-06-27,10928.9256
1964-06-28,10968.595
1964-06-29,11107.438
1964-06-30,11147.1074
1964-07-01,11365.2893
1964-07-02,11186.7769
1964-07-03,10849.5868
1964-07-04,10591.7355
1964-07-05,10512.3967
1964-07-06,10472.7273
1964-07-07,10373.5537
1964-07-08,10591.7355
1964-07-09,11365.2893
1964-07-10,11821.4876
1964-07-11,12000.0
1964-07-12,12277.686
1964-07-13,12456.1984
1964-07-14,12555.3719
1964-07-15,12416.5289
1964-07-16,12000.0
1964-07-17,12039.6694
1964-07-18,11960.3306
1964-07-19,11642.9752
1964-07-20,11642.9752
1964-07-21,11504.1322
1964-07-22,11325.6198
1964-07-23,11107.438
1964-07-24,10968.595
1964-07-25,10849.5868
1964-07-26,10710.7438
1964-07-27,10552.0661
1964-07-28,10373.5537
1964-07-29,10294.2149
1964-07-30,10413.2231
1964-07-31,10333.8843
1964-08-01,10036.3636
1964-08-02,9719.00826
1964-08-03,9361.98347
1964-08-04,9004.95868
1964-08-05,7834.71074
1964-08-06,6049.58678
1964-08-07,4680.99174
1964-08-08,4780.16529
1964-08-09,3927.27273
1964-08-10,4680.99174
1964-08-11,4621.4876
1964-08-12,4244.6281
1964-08-13,3847.93388
1964-08-14,3510.7438
1964-08-15,3233.05785
1964-08-16,3193.38843
1964-08-17,3173.55372
1964-08-18,3173.55372
1964-08-19,2876.03306
1964-08-20,2598.34711
1964-08-21,2380.16529
1964-08-22,2261.15702
1964-08-23,2380.16529
1964-08-24,2538.84298
1964-08-25,2538.84298
1964-08-26,2519.00826
1964-08-27,2439.66942
1964-08-28,2419.83471
1964-08-29,2142.14876
1964-08-30,1868.42975
1964-08-31,1775.20661
1964-09-01,1775.20661
1964-09-02,1793.05785
1964-09-03,1775.20661
1964-09-04,1757.35537
1964-09-05,1674.04959
1964-09-06,1495.53719
1964-09-07,1447.93388
1964-09-08,1447.93388
1964-09-09,1447.93388
1964-09-10,1432.06612
1964-09-11,1432.06612
1964-09-12,1432.06612
1964-09-13,1432.06612
1964-09-14,1432.06612
1964-09-15,1404.29752
1964-09-16,1372.56198
1964-09-17,1388.42975
1964-09-18,1271.40496
1964-09-19,1215.86777
1964-09-20,1229.75207
1964-09-21,1215.86777
1964-09-22,1174.21488
1964-09-23,1215.86777
1964-09-24,1174.21488
1964-09-25,1640.33058
1964-09-26,1658.18182
1964-09-27,1527.27273
1964-09-28,1358.67769
1964-09-29,1358.67769
1964-09-30,1243.63636
1964-10-01,686.28099
1964-10-02,694.21488
1964-10-03,694.21488
1964-10-04,694.21488
1964-10-05,694.21488
1964-10-06,694.21488
1964-10-07,694.21488
1964-10-08,686.28099
1964-10-09,686.28099
1964-10-10,668.42975
1964-10-11,640.66116
1964-10-12,640.66116
1964-10-13,686.28099
1964-10-14,763.63636
1964-10-15,763.63636
1964-10-16,803.30579
1964-10-17,868.76033
1964-10-18,868.76033
1964-10-19,856.8595
1964-10-20,714.04959
1964-10-21,452.2314
1964-10-22,575.20661
1964-10-23,714.04959
1964-10-24,723.96694
1964-10-25,723.96694
1964-10-26,733.8843
1964-10-27,733.8843
1964-10-28,733.8843
1964-10-29,733.8843
1964-10-30,733.8843
1964-10-31,733.8843
1964-11-01,743.80165
1964-11-02,753.71901
1964-11-03,753.71901
1964-11-04,753.71901
1964-11-05,763.63636
1964-11-06,763.63636
1964-11-07,773.55372
1964-11-08,783.47107
1964-11-09,793.38843
1964-11-10,837.02479
1964-11-11,924.29752
1964-11-12,924.29752
1964-11-13,846.94215
1964-11-14,803.30579
1964-11-15,803.30579
1964-11-16,803.30579
1964-11-17,803.30579
1964-11-18,803.30579
1964-11-19,803.30579
1964-11-20,793.38843
1964-11-21,783.47107
1964-11-22,783.47107
1964-11-23,793.38843
1964-11-24,793.38843
1964-11-25,803.30579
1964-11-26,803.30579
1964-11-27,803.30579
1964-11-28,803.30579
1964-11-29,803.30579
1964-11-30,846.94215
1964-12-01,900.49587
1964-12-02,900.49587
1964-12-03,900.49587
1964-12-04,900.49587
1964-12-05,900.49587
1964-12-06,900.49587
1964-12-07,900.49587
1964-12-08,846.94215
1964-12-09,783.47107
1964-12-10,783.47107
1964-12-11,783.47107
1964-12-12,783.47107
1964-12-13,783.47107
1964-12-14,793.38843
1964-12-15,783.47107
1964-12-16,783.47107
1964-12-17,783.47107
1964-12-18,783.47107
1964-12-19,783.47107
1964-12-20,783.47107
1964-12-21,783.47107
1964-12-22,783.47107
1964-12-23,793.38843
1964-12-24,793.38843
1964-12-25,793.38843
1964-12-26,793.38843
1964-12-27,793.38843
1964-12-28,846.94215
1964-12-29,960.0
1964-12-30,971.90083
1964-12-31,960.0
1965-01-01,960.0
1965-01-02,960.0
1965-01-03,960.0
1965-01-04,960.0
1965-01-05,960.0
1965-01-06,960.0
1965-01-07,960.0
1965-01-08,960.0
1965-01-09,960.0
1965-01-10,960.0
1965-01-11,960.0
1965-01-12,995.70248
1965-01-13,983.80165
1965-01-14,960.0
1965-01-15,960.0
1965-01-16,948.09917
1965-01-17,924.29752
1965-01-18,924.29752
1965-01-19,813.22314
1965-01-20,648.59504
1965-01-21,648.59504
1965-01-22,648.59504
1965-01-23,648.59504
1965-01-24,648.59504
1965-01-25,793.38843
1965-01-26,1043.30579
1965-01-27,1043.30579
1965-01-28,1043.30579
1965-01-29,1043.30579
1965-01-30,1057.19008
1965-01-31,1057.19008
1965-02-01,1057.19008
1965-02-02,1057.19008
1965-02-03,1057.19008
1965-02-04,1043.30579
1965-02-05,1043.30579
1965-02-06,1057.19008
1965-02-07,1057.19008
1965-02-08,1057.19008
1965-02-09,1057.19008
1965-02-10,1057.19008
1965-02-11,1057.19008
1965-02-12,1057.19008
1965-02-13,1057.19008
1965-02-14,1057.19008
1965-02-15,1057.19008
1965-02-16,1057.19008
1965-02-17,1057.19008
1965-02-18,1043.30579
1965-02-19,1043.30579
1965-02-20,1031.40496
1965-02-21,1031.40496
1965-02-22,1031.40496
1965-02-23,1019.50413
1965-02-24,1019.50413
1965-02-25,1019.50413
1965-02-26,1019.50413
1965-02-27,1007.60331
1965-02-28,1007.60331
1965-03-01,1007.60331
1965-03-02,1007.60331
1965-03-03,1007.60331
1965-03-04,1007.60331
1965-03-05,1007.60331
1965-03-06,1007.60331
1965-03-07,1007.60331
1965-03-08,1007.60331
1965-03-09,1007.60331
1965-03-10,1007.60331
1965-03-11,1007.60331
1965-03-12,1007.60331
1965-03-13,1007.60331
1965-03-14,1007.60331
1965-03-15,1007.60331
1965-03-16,1007.60331
1965-03-17,1007.60331
1965-03-18,1001.65289
1965-03-19,995.70248
1965-03-20,995.70248
1965-03-21,989.75207
1965-03-22,987.7686
1965-03-23,995.70248
1965-03-24,995.70248
1965-03-25,995.70248
1965-03-26,995.70248
1965-03-27,995.70248
1965-03-28,995.70248
1965-03-29,999.66942
1965-03-30,995.70248
1965-03-31,995.70248
1965-04-01,999.66942
1965-04-02,1007.60331
1965-04-03,991.73554
1965-04-04,983.80165
1965-04-05,995.70248
1965-04-06,1001.65289
1965-04-07,1007.60331
1965-04-08,1007.60331
1965-04-09,1013.55372
1965-04-10,1019.50413
1965-04-11,1025.45455
1965-04-12,1031.40496
1965-04-13,1031.40496
1965-04-14,1039.33884
1965-04-15,1047.27273
1965-04-16,1053.22314
1965-04-17,1071.07438
1965-04-18,1071.07438
1965-04-19,1001.65289
1965-04-20,902.47934
1965-04-21,902.47934
1965-04-22,912.39669
1965-04-23,926.28099
1965-04-24,936.19835
1965-04-25,936.19835
1965-04-26,948.09917
1965-04-27,956.03306
1965-04-28,960.0
1965-04-29,963.96694
1965-04-30,999.66942
1965-05-01,1019.50413
1965-05-02,1025.45455
1965-05-03,1039.33884
1965-05-04,1051.23967
1965-05-05,1053.22314
1965-05-06,1051.23967
1965-05-07,1067.10744
1965-05-08,1071.07438
1965-05-09,1077.02479
1965-05-10,1925.95041
1965-05-11,3312.39669
1965-05-12,3332.2314
1965-05-13,3292.56198
1965-05-14,3292.56198
1965-05-15,3272.72727
1965-05-16,3292.56198
1965-05-17,3431.40496
1965-05-18,3728.92562
1965-05-19,2697.52066
1965-05-20,1194.04959
1965-05-21,1192.06612
1965-05-22,2042.97521
1965-05-23,4621.4876
1965-05-24,4700.82645
1965-05-25,4938.84298
1965-05-26,5395.04132
1965-05-27,5553.71901
1965-05-28,5573.55372
1965-05-29,5474.38017
1965-05-30,5355.3719
1965-05-31,5216.52893
1965-06-01,5355.3719
1965-06-02,5950.41322
1965-06-03,7021.4876
1965-06-04,7319.00826
1965-06-05,7080.99174
1965-06-06,6902.47934
1965-06-07,7080.99174
1965-06-08,7299.17355
1965-06-09,7517.35537
1965-06-10,7695.86777
1965-06-11,7477.68595
1965-06-12,7418.18182
1965-06-13,7319.00826
1965-06-14,7636.36364
1965-06-15,7894.21488
1965-06-16,12257.8512
1965-06-17,18208.2645
1965-06-18,21223.1405
1965-06-19,22611.5703
1965-06-20,22413.2231
1965-06-21,21223.1405
1965-06-22,19795.0413
1965-06-23,19239.6694
1965-06-24,19338.843
1965-06-25,20429.7521
1965-06-26,22413.2231
1965-06-27,25586.7769
1965-06-28,28363.6364
1965-06-29,28561.9835
1965-06-30,25388.4298
1965-07-01,21024.7934
1965-07-02,17454.5455
1965-07-03,15193.3884
1965-07-04,14261.157
1965-07-05,14062.8099
1965-07-06,14280.9917
1965-07-07,14737.1901
1965-07-08,15233.0579
1965-07-09,15609.9174
1965-07-10,15867.7686
1965-07-11,15907.438
1965-07-12,15828.0992
1965-07-13,15709.0909
1965-07-14,16284.2975
1965-07-15,16601.6529
1965-07-16,15490.9091
1965-07-17,14419.8347
1965-07-18,13626.4463
1965-07-19,10353.719
1965-07-20,9520.66116
1965-07-21,10730.5785
1965-07-22,11246.281
1965-07-23,11404.9587
1965-07-24,11385.124
1965-07-25,11107.438
1965-07-26,11008.2645
1965-07-27,11186.7769
1965-07-28,11008.2645
1965-07-29,10770.2479
1965-07-30,10056.1984
1965-07-31,9580.16529
1965-08-01,9183.47107
1965-08-02,8766.94215
1965-08-03,8568.59504
1965-08-04,8152.06612
1965-08-05,7656.19835
1965-08-06,7140.49587
1965-08-07,6664.46281
1965-08-08,6287.60331
1965-08-09,5970.24793
1965-08-10,5672.72727
1965-08-11,5474.38017
1965-08-12,5335.53719
1965-08-13,5137.19008
1965-08-14,4998.34711
1965-08-15,4958.67769
1965-08-16,4919.00826
1965-08-17,4879.33884
1965-08-18,4839.66942
1965-08-19,4938.84298
1965-08-20,5454.54545
1965-08-21,5672.72727
1965-08-22,5831.40496
1965-08-23,5851.23967
1965-08-24,5910.7438
1965-08-25,5791.73554
1965-08-26,5553.71901
1965-08-27,5315.70248
1965-08-28,5038.01653
1965-08-29,4680.99174
1965-08-30,4462.80992
1965-08-31,4284.29752
1965-09-01,4145.45455
1965-09-02,4046.28099
1965-09-03,3966.94215
1965-09-04,11385.124
1965-09-05,32330.5785
1965-09-06,36892.562
1965-09-07,35305.7851
1965-09-08,33123.9669
1965-09-09,31338.843
1965-09-10,31735.5372
1965-09-11,30148.7603
1965-09-12,27768.595
1965-09-13,26578.5124
1965-09-14,20231.405
1965-09-15,9143.80165
1965-09-16,10750.4132
1965-09-17,10790.0826
1965-09-18,10175.2066
1965-09-19,9937.19008
1965-09-20,9639.66942
1965-09-21,9361.98347
1965-09-22,9104.13223
1965-09-23,8885.95041
1965-09-24,8647.93388
1965-09-25,8370.24793
1965-09-26,8112.39669
1965-09-27,7834.71074
1965-09-28,7537.19008
1965-09-29,7259.50413
1965-09-30,5117.35537
1965-10-01,3292.56198
1965-10-02,3173.55372
1965-10-03,3173.55372
1965-10-04,3034.71074
1965-10-05,2876.03306
1965-10-06,2836.36364
1965-10-07,2816.52893
1965-10-08,2757.02479
1965-10-09,2717.35537
1965-10-10,2717.35537
1965-10-11,2737.19008
1965-10-12,2737.19008
1965-10-13,2459.50413
1965-10-14,2221.4876
1965-10-15,2201.65289
1965-10-16,2201.65289
1965-10-17,2201.65289
1965-10-18,2201.65289
1965-10-19,2201.65289
1965-10-20,1190.08264
1965-10-21,773.55372
1965-10-22,1430.08264
1965-10-23,1691.90083
1965-10-24,1660.16529
1965-10-25,1820.82645
1965-10-26,2122.31405
1965-10-27,2380.16529
1965-10-28,2320.66116
1965-10-29,2538.84322
1965-10-30,2499.17355
1965-10-31,2439.66942
1965-11-01,2459.50413
1965-11-02,2598.34711
1965-11-03,2538.84322
1965-11-04,2638.01653
1965-11-05,2757.02479
1965-11-06,2757.02479
1965-11-07,2677.68595
1965-11-08,2618.18182
1965-11-09,2677.68595
1965-11-10,2737.19008
1965-11-11,2717.35537
1965-11-12,2657.85124
1965-11-13,2598.34711
1965-11-14,2538.84322
1965-11-15,2360.33058
1965-11-16,2221.4876
1965-11-17,2142.14876
1965-11-18,2062.80992
1965-11-19,2082.64463
1965-11-20,2042.97521
1965-11-21,2023.1405
1965-11-22,2003.30579
1965-11-23,1898.18182
1965-11-24,1741.4876
1965-11-25,1725.61983
1965-11-26,1697.85124
1965-11-27,1666.1157
1965-11-28,1636.36364
1965-11-29,1543.1405
1965-11-30,1267.43802
1965-12-01,942.14876
1965-12-02,894.54545
1965-12-03,946.1157
1965-12-04,1055.20661
1965-12-05,1055.20661
1965-12-06,1055.20661
1965-12-07,1049.2562
1965-12-08,975.86777
1965-12-09,946.1157
1965-12-10,999.66942
1965-12-11,1013.55372
1965-12-12,1041.32231
1965-12-13,1094.87603
1965-12-14,1168.26446
1965-12-15,1225.78512
1965-12-16,1235.70248
1965-12-17,1217.85124
1965-12-18,1207.93388
1965-12-19,1196.03306
1965-12-20,1194.04959
1965-12-21,1194.04959
1965-12-22,1194.04959
1965-12-23,1194.04959
1965-12-24,1194.04959
1965-12-25,1194.04959
1965-12-26,1194.04959
1965-12-27,1194.04959
1965-12-28,1203.96694
1965-12-29,1217.85124
1965-12-30,1265.45455
1965-12-31,1281.32231
1966-01-01,1281.32231
1966-01-02,1281.32231
1966-01-03,1315.04132
1966-01-04,1344.79339
1966-01-05,1344.79339
1966-01-06,1344.79339
1966-01-07,1342.80992
1966-01-08,1328.92562
1966-01-09,1328.92562
1966-01-10,1422.14876
1966-01-11,1570.90909
1966-01-12,1372.56198
1966-01-13,1584.79339
1966-01-14,1592.72727
1966-01-15,1602.64463
1966-01-16,1638.34711
1966-01-17,1620.49587
1966-01-18,1559.00826
1966-01-19,1467.7686
1966-01-20,1322.97521
1966-01-21,1142.47934
1966-01-22,1077.02479
1966-01-23,1063.1405
1966-01-24,1055.20661
1966-01-25,1031.40496
1966-01-26,1013.55372
1966-01-27,1013.55372
1966-01-28,1013.55372
1966-01-29,1007.60331
1966-01-30,999.66942
1966-01-31,999.66942
1966-02-01,991.73554
1966-02-02,989.75207
1966-02-03,1009.58678
1966-02-04,999.66942
1966-02-05,999.66942
1966-02-06,1001.65289
1966-02-07,1013.55372
1966-02-08,1069.09091
1966-02-09,1124.6281
1966-02-10,1122.64463
1966-02-11,1110.7438
1966-02-12,1106.77686
1966-02-13,1110.7438
1966-02-14,1198.01653
1966-02-15,1190.08264
1966-02-16,1180.16529
1966-02-17,1152.39669
1966-02-18,1055.20661
1966-02-19,1051.23967
1966-02-20,1041.32231
1966-02-21,1035.3719
1966-02-22,1025.45455
1966-02-23,1013.55372
1966-02-24,1001.65289
1966-02-25,999.66942
1966-02-26,999.66942
1966-02-27,995.70248
1966-02-28,985.78512
1966-03-01,985.78512
1966-03-02,1069.09091
1966-03-03,1180.16529
1966-03-04,1194.04959
1966-03-05,1207.93388
1966-03-06,1235.70248
1966-03-07,1265.45455
1966-03-08,1082.97521
1966-03-09,1041.32231
1966-03-10,1124.6281
1966-03-11,1166.28099
1966-03-12,1138.5124
1966-03-13,1124.6281
1966-03-14,793.38843
1966-03-15,1055.20661
1966-03-16,1172.2314
1966-03-17,1198.01653
1966-03-18,1247.60331
1966-03-19,1291.23967
1966-03-20,1297.19008
1966-03-21,1295.20661
1966-03-22,1301.15702
1966-03-23,1344.79339
1966-03-24,1338.84298
1966-03-25,1299.17355
1966-03-26,1297.19008
1966-03-27,1348.76033
1966-03-28,1412.2314
1966-03-29,1699.83471
1966-03-30,2102.47934
1966-03-31,2419.83471
1966-04-01,3391.73554
1966-04-02,3451.23967
1966-04-03,3431.40496
1966-04-04,5851.23967
1966-04-05,8885.95041
1966-04-06,8766.94215
1966-04-07,7854.54545
1966-04-08,7775.20661
1966-04-09,7219.83471
1966-04-10,4462.80992
1966-04-11,4006.61157
1966-04-12,4145.45455
1966-04-13,3907.43802
1966-04-14,3094.21488
1966-04-15,2320.66116
1966-04-16,2181.81818
1966-04-17,2122.31405
1966-04-18,2280.99174
1966-04-19,2657.85124
1966-04-20,3252.89256
1966-04-21,3213.22314
1966-04-22,2816.52893
1966-04-23,2519.00826
1966-04-24,2320.66116
1966-04-25,2340.49587
1966-04-26,2380.16529
1966-04-27,2459.50413
1966-04-28,2499.17355
1966-04-29,2519.00826
1966-04-30,2360.33058
1966-05-01,2181.81818
1966-05-02,2062.80992
1966-05-03,1943.80165
1966-05-04,2023.1405
1966-05-05,2181.81818
1966-05-06,2717.35537
1966-05-07,2856.19835
1966-05-08,3371.90083
1966-05-09,4819.83471
1966-05-10,8409.91736
1966-05-11,9798.34711
1966-05-12,10393.3884
1966-05-13,11186.7769
1966-05-14,9798.34711
1966-05-15,7021.4876
1966-05-16,4899.17355
1966-05-17,4304.13223
1966-05-18,3709.09091
1966-05-19,3133.8843
1966-05-20,3510.7438
1966-05-21,2558.67769
1966-05-22,2955.3719
1966-05-23,2975.20661
1966-05-24,2856.19835
1966-05-25,4284.29752
1966-05-26,4462.80992
1966-05-27,4304.13223
1966-05-28,4046.28099
1966-05-29,5851.23967
1966-05-30,7676.03306
1966-05-31,8152.06612
1966-06-01,9104.13223
1966-06-02,9699.17355
1966-06-03,9619.83471
1966-06-04,8687.60331
1966-06-05,7140.49587
1966-06-06,5236.36364
1966-06-07,4482.64463
1966-06-08,4581.8177
1966-06-09,4720.66116
1966-06-10,5097.52066
1966-06-11,5375.20661
1966-06-12,5295.86777
1966-06-13,5335.53719
1966-06-14,5196.69421
1966-06-15,4482.64463
1966-06-16,3748.76033
1966-06-17,3451.23967
1966-06-18,3352.06612
1966-06-19,3332.2314
1966-06-20,3391.73554
1966-06-21,3471.07438
1966-06-22,4046.28099
1966-06-23,5176.8595
1966-06-24,7180.16529
1966-06-25,7854.54545
1966-06-26,8608.26446
1966-06-27,8092.56198
1966-06-28,5454.54545
1966-06-29,4244.6281
1966-06-30,3709.09091
1966-07-01,3411.57025
1966-07-02,3510.7438
1966-07-03,3490.90909
1966-07-04,3590.08264
1966-07-05,3609.91736
1966-07-06,3530.57851
1966-07-07,3173.55372
1966-07-08,2915.70248
1966-07-09,2836.36364
1966-07-10,2697.52066
1966-07-11,2439.66942
1966-07-12,2300.82645
1966-07-13,2499.17355
1966-07-14,2578.5124
1966-07-15,2598.34711
1966-07-16,2677.68595
1966-07-17,2578.5124
1966-07-18,2320.66116
1966-07-19,2181.81818
1966-07-20,2221.4876
1966-07-21,2439.66942
1966-07-22,2479.33884
1966-07-23,2519.00826
1966-07-24,2558.67769
1966-07-25,2499.17355
1966-07-26,2280.99174
1966-07-27,2161.98347
1966-07-28,2142.14876
1966-07-29,2201.65289
1966-07-30,2201.65289
1966-07-31,2122.31405
1966-08-01,2082.64463
1966-08-02,1902.14876
1966-08-03,1900.16529
1966-08-04,1953.71901
1966-08-05,1949.75207
1966-08-06,1973.55372
1966-08-07,2122.31405
1966-08-08,2300.82645
1966-08-09,2400.0
1966-08-10,2340.49587
1966-08-11,2102.47934
1966-08-12,1882.31405
1966-08-13,1816.8595
1966-08-14,1767.27273
1966-08-15,1729.58678
1966-08-16,1600.66116
1966-08-17,1572.89256
1966-08-18,1570.90909
1966-08-19,1523.30579
1966-08-20,1473.71901
1966-08-21,1430.08264
1966-08-22,1471.73554
1966-08-23,1501.4876
1966-08-24,1469.75207
1966-08-25,1459.83471
1966-08-26,1354.71074
1966-08-27,1281.32231
1966-08-28,1251.57025
1966-08-29,1277.35537
1966-08-30,1287.27273
1966-08-31,1271.40496
1966-09-01,1245.61983
1966-09-02,1211.90083
1966-09-03,1196.03306
1966-09-04,1283.30579
1966-09-05,1366.61157
1966-09-06,1471.73554
1966-09-07,1436.03306
1966-09-08,1412.2314
1966-09-09,1426.1157
1966-09-10,1368.59504
1966-09-11,1322.97521
1966-09-12,1283.30579
1966-09-13,1239.66942
1966-09-14,1194.04959
1966-09-15,1293.22314
1966-09-16,1438.01653
1966-09-17,1451.90083
1966-09-18,1386.44628
1966-09-19,1449.91736
1966-09-20,1497.52066
1966-09-21,1473.71901
1966-09-22,1416.19835
1966-09-23,1354.71074
1966-09-24,1295.20661
1966-09-25,1263.47107
1966-09-26,1231.73554
1966-09-27,1213.8843
1966-09-28,1188.09917
1966-09-29,1176.19835
1966-09-30,1144.46281
1966-10-01,1118.67769
1966-10-02,1102.80992
1966-10-03,1069.09091
1966-10-04,1043.30579
1966-10-05,1019.50413
1966-10-06,1033.38843
1966-10-07,1120.66116
1966-10-08,1090.90909
1966-10-09,1055.20661
1966-10-10,1021.4876
1966-10-11,979.83471
1966-10-12,973.8843
1966-10-13,942.14876
1966-10-14,946.1157
1966-10-15,963.96694
1966-10-16,928.26446
1966-10-17,886.61157
1966-10-18,866.77686
1966-10-19,942.14876
1966-10-20,1057.19008
1966-10-21,967.93388
1966-10-22,714.04959
1966-10-23,700.16529
1966-10-24,710.08264
1966-10-25,714.04959
1966-10-26,698.18182
1966-10-27,684.29752
1966-10-28,684.29752
1966-10-29,686.28099
1966-10-30,680.33058
1966-10-31,674.38017
1966-11-01,674.38017
1966-11-02,668.42975
1966-11-03,664.46281
1966-11-04,664.46281
1966-11-05,664.46281
1966-11-06,674.38017
1966-11-07,674.38017
1966-11-08,674.38017
1966-11-09,670.41322
1966-11-10,664.46281
1966-11-11,664.46281
1966-11-12,664.46281
1966-11-13,664.46281
1966-11-14,878.67769
1966-11-15,1200.0
1966-11-16,1295.20661
1966-11-17,1315.04132
1966-11-18,1297.19008
1966-11-19,1328.92562
1966-11-20,1251.57025
1966-11-21,1198.01653
1966-11-22,1166.28099
1966-11-23,1114.71074
1966-11-24,1073.05785
1966-11-25,1021.4876
1966-11-26,965.95041
1966-11-27,886.61157
1966-11-28,823.1405
1966-11-29,803.30579
1966-11-30,797.35537
1966-12-01,819.17355
1966-12-02,898.5124
1966-12-03,936.19835
1966-12-04,936.19835
1966-12-05,1041.32231
1966-12-06,1088.92562
1966-12-07,1031.40496
1966-12-08,983.80165
1966-12-09,914.38017
1966-12-10,837.02479
1966-12-11,809.2562
1966-12-12,803.30579
1966-12-13,803.30579
1966-12-14,854.87603
1966-12-15,954.04959
1966-12-16,999.66942
1966-12-17,999.66942
1966-12-18,999.66942
1966-12-19,993.71901
1966-12-20,977.85124
1966-12-21,868.76033
1966-12-22,769.58678
1966-12-23,664.46281
1966-12-24,618.84298
1966-12-25,599.00826
1966-12-26,599.00826
1966-12-27,599.00826
1966-12-28,573.22314
1966-12-29,509.75207
1966-12-30,499.83471
1966-12-31,515.70248
1967-01-01,519.66942
1967-01-02,505.78512
1967-01-03,521.65289
1967-01-04,519.66942
1967-01-05,535.53719
1967-01-06,535.53719
1967-01-07,535.53719
1967-01-08,535.53719
1967-01-09,515.70248
1967-01-10,525.61983
1967-01-11,527.60331
1967-01-12,527.60331
1967-01-13,533.55372
1967-01-14,535.53719
1967-01-15,541.4876
1967-01-16,541.4876
1967-01-17,543.47107
1967-01-18,553.38843
1967-01-19,559.33884
1967-01-20,559.33884
1967-01-21,559.33884
1967-01-22,559.33884
1967-01-23,559.33884
1967-01-24,567.27273
1967-01-25,583.1405
1967-01-26,583.1405
1967-01-27,583.1405
1967-01-28,583.1405
1967-01-29,583.1405
1967-01-30,591.07438
1967-01-31,583.1405
1967-02-01,583.1405
1967-02-02,583.1405
1967-02-03,583.1405
1967-02-04,583.1405
1967-02-05,583.1405
1967-02-06,583.1405
1967-02-07,583.1405
1967-02-08,583.1405
1967-02-09,591.07438
1967-02-10,591.07438
1967-02-11,591.07438
1967-02-12,591.07438
1967-02-13,599.00826
1967-02-14,599.00826
1967-02-15,599.00826
1967-02-16,599.00826
1967-02-17,599.00826
1967-02-18,599.00826
1967-02-19,599.00826
1967-02-20,599.00826
1967-02-21,599.00826
1967-02-22,606.94215
1967-02-23,606.94215
1967-02-24,606.94215
1967-02-25,606.94215
1967-02-26,606.94215
1967-02-27,614.87603
1967-02-28,614.87603
1967-03-01,622.80992
1967-03-02,622.80992
1967-03-03,622.80992
1967-03-04,622.80992
1967-03-05,622.80992
1967-03-06,622.80992
1967-03-07,622.80992
1967-03-08,622.80992
1967-03-09,622.80992
1967-03-10,622.80992
1967-03-11,622.80992
1967-03-12,622.80992
1967-03-13,630.7438
1967-03-14,630.7438
1967-03-15,630.7438
1967-03-16,630.7438
1967-03-17,630.7438
1967-03-18,638.67769
1967-03-19,638.67769
1967-03-20,638.67769
1967-03-21,638.67769
1967-03-22,646.61157
1967-03-23,646.61157
1967-03-24,654.54545
1967-03-25,654.54545
1967-03-26,654.54545
1967-03-27,842.97521
1967-03-28,1785.12397
1967-03-29,3133.8843
1967-03-30,4224.79339
1967-03-31,5157.02479
1967-04-01,5315.70248
1967-04-02,5077.68643
1967-04-03,4780.16529
1967-04-04,4561.98347
1967-04-05,3550.41322
1967-04-06,2122.31405
1967-04-07,2340.49587
1967-04-08,2578.5124
1967-04-09,2499.17355
1967-04-10,2419.83471
1967-04-11,2340.49587
1967-04-12,2261.15702
1967-04-13,2618.18182
1967-04-14,3451.23967
1967-04-15,4879.33884
1967-04-16,5355.3719
1967-04-17,5355.3719
1967-04-18,5256.19835
1967-04-19,5157.02479
1967-04-20,5196.69421
1967-04-21,4363.63636
1967-04-22,4978.5124
1967-04-23,4998.34711
1967-04-24,4879.33884
1967-04-25,5295.86777
1967-04-26,3570.24793
1967-04-27,1804.95868
1967-04-28,1785.12397
1967-04-29,1923.96694
1967-04-30,2181.81818
1967-05-01,2181.81818
1967-05-02,2181.81818
1967-05-03,2142.14876
1967-05-04,1824.79339
1967-05-05,1566.94215
1967-05-06,1519.33884
1967-05-07,1455.86777
1967-05-08,1638.34711
1967-05-09,2201.65289
1967-05-10,2400.0